Progress Software Operating Margin 2010-2024 | PRGS

Current and historical operating margin for Progress Software (PRGS) over the last 10 years. The current operating profit margin for Progress Software as of February 29, 2024 is 22.86%.
Progress Software Operating Margin Historical Data
Date TTM Revenue TTM Operating Income Operating Margin
2024-02-29 $0.72B $0.11B 15.38%
2023-11-30 $0.69B $0.11B 15.99%
2023-08-31 $0.67B $0.12B 17.51%
2023-05-31 $0.65B $0.12B 18.62%
2023-02-28 $0.62B $0.14B 22.22%
2022-11-30 $0.60B $0.13B 21.76%
2022-08-31 $0.59B $0.12B 20.68%
2022-05-31 $0.58B $0.14B 23.24%
2022-02-28 $0.55B $0.12B 21.12%
2021-11-30 $0.53B $0.12B 21.70%
2021-08-31 $0.51B $0.11B 22.27%
2021-05-31 $0.48B $0.10B 21.26%
2021-02-28 $0.45B $0.10B 22.96%
2020-11-30 $0.44B $0.11B 24.43%
2020-08-31 $0.44B $0.08B 18.99%
2020-05-31 $0.43B $0.07B 15.21%
2020-02-29 $0.43B $0.06B 12.90%
2019-11-30 $0.41B $0.04B 9.66%
2019-08-31 $0.40B $0.06B 14.43%
2019-05-31 $0.38B $0.06B 15.75%
2019-02-28 $0.37B $0.06B 17.11%
2018-11-30 $0.38B $0.07B 17.94%
2018-08-31 $0.39B $0.07B 18.77%
2018-05-31 $0.39B $0.07B 18.83%
2018-02-28 $0.39B $0.08B 19.08%
2017-11-30 $0.39B $0.06B 14.65%
2017-08-31 $0.40B $-0.02B -5.26%
2017-05-31 $0.40B $-0.03B -6.68%
2017-02-28 $0.41B $-0.04B -8.60%
2016-11-30 $0.41B $-0.03B -7.16%
2016-08-31 $0.40B $0.05B 13.25%
2016-05-31 $0.39B $0.05B 12.21%
2016-02-29 $0.39B $0.03B 8.55%
2015-11-30 $0.38B $0.02B 3.97%
2015-08-31 $0.36B $0.02B 6.06%
2015-05-31 $0.35B $0.03B 9.22%
2015-02-28 $0.34B $0.06B 16.22%
2014-11-30 $0.33B $0.08B 24.02%
2014-08-31 $0.33B $0.08B 23.62%
2014-05-31 $0.33B $0.07B 20.92%
2014-02-28 $0.33B $0.06B 19.02%
2013-11-30 $0.34B $0.06B 19.10%
2013-08-31 $0.33B $0.06B 19.63%
2013-05-31 $0.32B $0.07B 20.19%
2013-02-28 $0.31B $0.06B 20.38%
2012-11-30 $0.32B $0.07B 21.14%
2012-08-31 $0.33B $0.07B 21.58%
2012-05-31 $0.38B $0.07B 19.47%
2012-02-29 $0.44B $0.09B 19.95%
2011-11-30 $0.49B $0.10B 19.88%
2011-08-31 $0.54B $0.10B 18.92%
2011-05-31 $0.54B $0.10B 19.15%
2011-02-28 $0.54B $0.10B 18.66%
2010-11-30 $0.53B $0.07B 12.83%
2010-08-31 $0.52B $0.06B 11.69%
2010-05-31 $0.51B $0.05B 10.55%
2010-02-28 $0.50B $0.04B 8.58%
2009-11-30 $0.49B $0.05B 10.53%
Sector Industry Market Cap Revenue
Computer and Technology Computer Software $2.218B $0.694B
Progress offers the leading platform for developing and deploying mission-critical business applications. Progress empowers enterprises and ISVs to build and deliver cognitive-first applications that harness big data to derive business insights and competitive advantage. Progress offers leading technologies for easily building powerful user interfaces across any type of device, a reliable, scalable and secure backend platform to deploy modern applications, leading data connectivity to all sources, and award-winning predictive analytics that brings the power of machine learning to any organization.
Stock Name Country Market Cap PE Ratio
Microsoft (MSFT) United States $3199.756B 37.27
Oracle (ORCL) United States $342.463B 27.88
Salesforce (CRM) United States $274.738B 45.93
Adobe (ADBE) United States $216.801B 36.25
Intuit (INTU) United States $187.676B 62.94
Synopsys (SNPS) United States $87.402B 60.52
Cadence Design Systems (CDNS) United States $79.692B 75.86
Dassault Systemes SA (DASTY) France $57.687B 37.48
Autodesk (ADSK) United States $47.396B 46.31
MicroStrategy (MSTR) United States $29.214B 0.00
ANSYS (ANSS) United States $28.491B 52.72
PTC (PTC) United States $21.996B 58.34
SS&C Technologies Holdings (SSNC) United States $15.576B 14.75
Manhattan Associates (MANH) United States $13.790B 73.20
Descartes Systems Group (DSGX) Canada $8.474B 74.17
Open Text (OTEX) Canada $8.443B 8.50
Trend Micro (TMICY) Japan $6.578B 47.64
Pegasystems (PEGA) United States $5.245B 46.38
CommVault Systems (CVLT) United States $4.775B 78.04
Blackbaud (BLKB) United States $4.112B 35.40
ACI Worldwide (ACIW) United States $3.803B 18.22
Verint Systems (VRNT) United States $1.932B 18.01
Sapiens (SPNS) Israel $1.887B 25.74
BlackBerry (BB) Canada $1.759B 0.00
PROS Holdings (PRO) United States $1.442B 0.00
Simulations Plus (SLP) United States $0.999B 73.50
Rand Worldwide (RWWI) United States $0.647B 0.00
Magic Software Enterprises (MGIC) Israel $0.519B 11.01
American Software (AMSWA) United States $0.357B 29.89
Canaan (CAN) China $0.255B 0.00
OptimizeRx (OPRX) United States $0.230B 0.00
Rigetti Computing (RGTI) United States $0.184B 0.00
Icad Inc (ICAD) United States $0.042B 0.00
Neonode (NEON) Sweden $0.038B 0.00
NetSol Technologies (NTWK) United States $0.030B 0.00
Smith Micro Software (SMSI) United States $0.027B 0.00
Hanryu Holdings (HRYU) South Korea $0.023B 0.00
Wetouch Technology (WETH) $0.022B 0.00
GSE Systems (GVP) United States $0.012B 0.00
SAP SE (SAP) Germany $0.000B 49.59